| time (UTC) | temp F | wind direction | speed MPH | gust MPH | rain 1hr in | rain 24hr in | rain mn in | humidity % | barometer mb |
| 20260906200003 | 90 | 163 | 10.0 | 19.0 | 0.00 | 0.11 | 0.11 | 54 | 1014.0 |
| 20260906195501 | 90 | 177 | 17.0 | 19.0 | 0.00 | 0.11 | 0.11 | 55 | 1014.1 |
| 20260906194500 | 90 | 155 | 14.0 | 21.0 | 0.00 | 0.11 | 0.11 | 53 | 1014.3 |
| 20260906194000 | 90 | 157 | 14.0 | 20.0 | 0.00 | 0.11 | 0.11 | 52 | 1014.3 |
| 20260906193501 | 89 | 163 | 12.0 | 18.0 | 0.00 | 0.11 | 0.11 | 56 | 1014.3 |
| 20260906193001 | 89 | 183 | 10.0 | 19.0 | 0.00 | 0.11 | 0.11 | 55 | 1014.2 |
| 20260906192000 | 89 | 169 | 18.0 | 18.0 | 0.00 | 0.11 | 0.11 | 57 | 1014.4 |
| 20260906191501 | 89 | 150 | 13.0 | 18.0 | 0.00 | 0.11 | 0.11 | 60 | 1014.5 |
| 20260906191000 | 89 | 138 | 12.0 | 15.0 | 0.00 | 0.11 | 0.11 | 60 | 1014.5 |
| 20260906190500 | 88 | 161 | 13.0 | 15.0 | 0.00 | 0.11 | 0.11 | 59 | 1014.5 |
| 20260906190003 | 87 | 138 | 11.0 | 15.0 | 0.00 | 0.11 | 0.11 | 62 | 1014.6 |
| 20260906185001 | 87 | 153 | 9.0 | 17.0 | 0.00 | 0.11 | 0.11 | 61 | 1014.8 |
| 20260906184500 | 88 | 164 | 16.0 | 17.0 | 0.00 | 0.11 | 0.11 | 64 | 1014.9 |
| 20260906184001 | 87 | 159 | 13.0 | 16.0 | 0.00 | 0.11 | 0.11 | 65 | 1014.9 |
| 20260906183500 | 87 | 130 | 9.0 | 16.0 | 0.00 | 0.11 | 0.11 | 65 | 1014.9 |
| 20260906183001 | 87 | 139 | 7.0 | 13.0 | 0.00 | 0.11 | 0.11 | 67 | 1014.9 |
| 20260906182501 | 85 | 153 | 13.0 | 14.0 | 0.00 | 0.11 | 0.11 | 65 | 1015.1 |
| 20260906182001 | 84 | 139 | 8.0 | 13.0 | 0.00 | 0.11 | 0.11 | 71 | 1015.1 |
| 20260906181500 | 81 | 143 | 12.0 | 14.0 | 0.00 | 0.11 | 0.11 | 71 | 1015.2 |
| 20260906181001 | 82 | 175 | 8.0 | 14.0 | 0.00 | 0.11 | 0.11 | 71 | 1015.2 |
| 20260906180500 | 85 | 138 | 10.0 | 14.0 | 0.00 | 0.11 | 0.11 | 70 | 1015.4 |
| 20260906180003 | 84 | 136 | 7.0 | 12.0 | 0.00 | 0.11 | 0.11 | 77 | 1015.4 |
| 20260906175501 | 80 | 171 | 7.0 | 12.0 | 0.00 | 0.11 | 0.11 | 75 | 1015.6 |
| 20260906175001 | 80 | 155 | 4.0 | 11.0 | 0.00 | 0.11 | 0.11 | 76 | 1015.9 |
| 20260906174500 | 80 | 152 | 8.0 | 14.0 | 0.00 | 0.11 | 0.11 | 76 | 1015.9 |
| 20260906173501 | 81 | 132 | 7.0 | 12.0 | 0.00 | 0.11 | 0.11 | 76 | 1015.9 |
| 20260906173000 | 80 | 121 | 4.0 | 9.0 | 0.00 | 0.11 | 0.11 | 81 | 1015.8 |
| 20260906172501 | 79 | 147 | 5.0 | 12.0 | 0.00 | 0.11 | 0.11 | 79 | 1015.8 |
| 20260906172001 | 80 | 142 | 8.0 | 12.0 | 0.00 | 0.11 | 0.11 | 77 | 1016.0 |
| 20260906171001 | 77 | 146 | 5.0 | 12.0 | 0.00 | 0.11 | 0.11 | 80 | 1016.2 |
| 20260906170501 | 77 | 159 | 6.0 | 11.0 | 0.00 | 0.11 | 0.11 | 81 | 1016.2 |
| 20260906170003 | 77 | 157 | 5.0 | 11.0 | 0.00 | 0.11 | 0.11 | 83 | 1016.2 |
| 20260906165501 | 76 | 147 | 5.0 | 14.0 | 0.00 | 0.11 | 0.11 | 90 | 1016.2 |
| 20260906165000 | 74 | 126 | 8.0 | 14.0 | 0.00 | 0.11 | 0.11 | 89 | 1016.3 |
| 20260906164500 | 73 | 160 | 9.0 | 13.0 | 0.00 | 0.11 | 0.11 | 90 | 1016.4 |
| 20260906164000 | 73 | 132 | 7.0 | 11.0 | 0.00 | 0.11 | 0.11 | 91 | 1016.7 |
| 20260906163001 | 72 | 156 | 5.0 | 7.0 | 0.00 | 0.11 | 0.11 | 91 | 1017.5 |
| 20260906162501 | 72 | 125 | 4.0 | 4.0 | 0.00 | 0.11 | 0.11 | 91 | 1017.8 |
| 20260906162000 | 72 | 86 | 1.0 | 3.0 | 0.00 | 0.11 | 0.11 | 91 | 1018.0 |
| 20260906161501 | 71 | 158 | 1.0 | 3.0 | 0.00 | 0.11 | 0.11 | 91 | 1018.1 |
| 20260906161000 | 71 | 158 | 0.0 | 3.0 | 0.03 | 0.11 | 0.11 | 91 | 1018.1 |
| 20260906160500 | 71 | 250 | 2.0 | 4.0 | 0.03 | 0.11 | 0.11 | 90 | 1018.2 |
| 20260906160003 | 71 | 271 | 0.0 | 6.0 | 0.03 | 0.11 | 0.11 | 90 | 1018.2 |
| 20260906155500 | 71 | 347 | 2.0 | 8.0 | 0.03 | 0.11 | 0.11 | 90 | 1018.1 |
| 20260906155000 | 71 | 340 | 2.0 | 9.0 | 0.03 | 0.11 | 0.11 | 90 | 1018.1 |
| 20260906154500 | 71 | 331 | 4.0 | 9.0 | 0.03 | 0.11 | 0.11 | 90 | 1018.0 |
| 20260906154000 | 71 | 348 | 4.0 | 10.0 | 0.03 | 0.11 | 0.11 | 90 | 1018.0 |
| 20260906153500 | 71 | 5 | 4.0 | 13.0 | 0.03 | 0.11 | 0.11 | 90 | 1018.0 |
| 20260906153000 | 71 | 325 | 6.0 | 11.0 | 0.03 | 0.11 | 0.11 | 90 | 1018.0 |
| 20260906152501 | 71 | 336 | 5.0 | 12.0 | 0.03 | 0.11 | 0.11 | 90 | 1017.9 |
| 20260906152000 | 71 | 360 | 6.0 | 12.0 | 0.03 | 0.11 | 0.11 | 90 | 1017.9 |
| 20260906151501 | 72 | 348 | 5.0 | 11.0 | 0.03 | 0.11 | 0.11 | 90 | 1018.0 |
| 20260906151000 | 72 | 355 | 3.0 | 11.0 | 0.00 | 0.08 | 0.08 | 90 | 1018.0 |
| 20260906150501 | 0 | 0.0 | 0.0 | 0.00 | 0.08 | 0.08 | 1018.0 | ||
| 20260906145500 | 0 | 0.0 | 0.0 | 0.00 | 0.08 | 0.08 | 1018.0 | ||
| 20260906144500 | 0 | 0.0 | 0.0 | 0.00 | 0.08 | 0.08 | 1017.9 | ||
| 20260906144001 | 0 | 0.0 | 0.0 | 0.01 | 0.08 | 0.08 | 1017.7 | ||
| 20260906143500 | 0 | 0.0 | 0.0 | 0.01 | 0.08 | 0.08 | 1017.8 | ||
| 20260906143000 | 0 | 0.0 | 0.0 | 0.01 | 0.08 | 0.08 | 1017.8 | ||
| 20260906142500 | 0 | 0.0 | 0.0 | 0.01 | 0.08 | 0.08 | 1017.7 | ||
| 20260906142001 | 0 | 0.0 | 0.0 | 0.01 | 0.08 | 0.08 | 1017.8 | ||
| 20260906141500 | 0 | 0.0 | 3.0 | 0.01 | 0.08 | 0.08 | 1017.6 | ||
| 20260906141001 | 0 | 0.0 | 6.0 | 0.01 | 0.08 | 0.08 | 1017.4 | ||
| 20260906140501 | 71 | 29 | 3.0 | 8.0 | 0.01 | 0.08 | 0.08 | 91 | 1017.3 |
| 20260906140003 | 71 | 39 | 1.0 | 10.0 | 0.01 | 0.08 | 0.08 | 91 | 1017.2 |
| 20260906135501 | 71 | 321 | 5.0 | 10.0 | 0.01 | 0.08 | 0.08 | 91 | 1017.2 |
| 20260906135000 | 71 | 355 | 9.0 | 11.0 | 0.01 | 0.08 | 0.08 | 91 | 1017.2 |
| 20260906134501 | 71 | 344 | 10.0 | 11.0 | 0.01 | 0.08 | 0.08 | 91 | 1016.8 |
| 20260906134001 | 71 | 24 | 4.0 | 9.0 | 0.02 | 0.07 | 0.07 | 91 | 1016.6 |
| 20260906133500 | 71 | 29 | 2.0 | 10.0 | 0.07 | 0.07 | 0.07 | 91 | 1016.7 |
| 20260906133001 | 71 | 360 | 5.0 | 11.0 | 0.07 | 0.07 | 0.07 | 91 | 1016.4 |
| 20260906132501 | 71 | 346 | 5.0 | 11.0 | 0.07 | 0.07 | 0.07 | 91 | 1016.6 |
| 20260906132001 | 71 | 13 | 7.0 | 10.0 | 0.07 | 0.07 | 0.07 | 91 | 1016.8 |
| 20260906131501 | 71 | 38 | 4.0 | 12.0 | 0.07 | 0.07 | 0.07 | 91 | 1017.1 |
| 20260906131000 | 71 | 28 | 6.0 | 14.0 | 0.07 | 0.07 | 0.07 | 91 | 1017.2 |
| 20260906130501 | 71 | 355 | 4.0 | 15.0 | 0.07 | 0.07 | 0.07 | 91 | 1017.4 |
| 20260906130003 | 71 | 21 | 12.0 | 15.0 | 0.07 | 0.07 | 0.07 | 91 | 1017.5 |
| 20260906125501 | 72 | 21 | 5.0 | 13.0 | 0.07 | 0.07 | 0.07 | 90 | 1017.8 |
| 20260906125000 | 72 | 355 | 8.0 | 13.0 | 0.07 | 0.07 | 0.07 | 90 | 1017.9 |
| 20260906124500 | 72 | 40 | 5.0 | 13.0 | 0.07 | 0.07 | 0.07 | 89 | 1017.9 |
| 20260906124000 | 72 | 5 | 5.0 | 13.0 | 0.05 | 0.05 | 0.05 | 89 | 1017.9 |
| 20260906123500 | 72 | 336 | 9.0 | 14.0 | 0.00 | 0.00 | 0.00 | 88 | 1018.0 |
| 20260906123001 | 73 | 360 | 9.0 | 16.0 | 0.00 | 0.00 | 0.00 | 87 | 1017.8 |
| 20260906122001 | 73 | 18 | 11.0 | 16.0 | 0.00 | 0.00 | 0.00 | 87 | 1017.7 |
| 20260906121501 | 73 | 350 | 8.0 | 16.0 | 0.00 | 0.00 | 0.00 | 86 | 1017.6 |
| 20260906121000 | 73 | 287 | 8.0 | 16.0 | 0.00 | 0.00 | 0.00 | 85 | 1017.5 |
| 20260906120501 | 74 | 29 | 8.0 | 13.0 | 0.00 | 0.00 | 0.00 | 84 | 1017.5 |
| 20260906120003 | 74 | 9 | 7.0 | 17.0 | 0.00 | 0.00 | 0.00 | 83 | 1017.4 |
| 20260906115501 | 74 | 317 | 10.0 | 17.0 | 0.00 | 0.00 | 0.00 | 82 | 1017.1 |
| 20260906115001 | 74 | 314 | 8.0 | 15.0 | 0.00 | 0.00 | 0.00 | 81 | 1017.0 |
| 20260906114501 | 75 | 355 | 6.0 | 18.0 | 0.00 | 0.00 | 0.00 | 80 | 1016.8 |
| 20260906113500 | 76 | 344 | 14.0 | 17.0 | 0.00 | 0.00 | 0.00 | 78 | 1016.8 |
| 20260906113001 | 76 | 360 | 11.0 | 19.0 | 0.00 | 0.00 | 0.00 | 76 | 1016.6 |
| 20260906112501 | 77 | 5 | 12.0 | 19.0 | 0.00 | 0.00 | 0.00 | 75 | 1016.5 |
| 20260906112001 | 77 | 336 | 10.0 | 19.0 | 0.00 | 0.00 | 0.00 | 73 | 1016.2 |
| 20260906111500 | 78 | 28 | 9.0 | 19.0 | 0.00 | 0.00 | 0.00 | 73 | 1016.4 |
| 20260906111000 | 77 | 19 | 16.0 | 20.0 | 0.00 | 0.00 | 0.00 | 73 | 1016.1 |
| 20260906110500 | 77 | 360 | 6.0 | 20.0 | 0.00 | 0.00 | 0.00 | 73 | 1016.2 |
| 20260906110003 | 76 | 349 | 5.0 | 12.0 | 0.00 | 0.00 | 0.00 | 75 | 1015.8 |
| 20260906105501 | 75 | 9 | 7.0 | 13.0 | 0.00 | 0.00 | 0.00 | 78 | 1015.5 |
| 20260906105000 | 73 | 279 | 7.0 | 17.0 | 0.00 | 0.00 | 0.00 | 81 | 1015.6 |
| 20260906104500 | 73 | 14 | 9.0 | 12.0 | 0.00 | 0.00 | 0.00 | 83 | 1015.7 |
| 20260906103500 | 73 | 90 | 2.0 | 2.0 | 0.00 | 0.00 | 0.00 | 82 | 1014.5 |
| 20260906103000 | 73 | 90 | 1.0 | 2.0 | 0.00 | 0.00 | 0.00 | 81 | 1014.3 |
| 20260906102500 | 73 | 90 | 0.0 | 3.0 | 0.00 | 0.00 | 0.00 | 80 | 1014.1 |
| 20260906102001 | 74 | 90 | 1.0 | 3.0 | 0.00 | 0.00 | 0.00 | 80 | 1014.0 |
| 20260906101501 | 74 | 90 | 0.0 | 3.0 | 0.00 | 0.00 | 0.00 | 79 | 1014.0 |
| 20260906100500 | 74 | 89 | 0.0 | 6.0 | 0.00 | 0.00 | 0.00 | 80 | 1013.9 |
| 20260906100003 | 74 | 67 | 1.0 | 6.0 | 0.00 | 0.00 | 0.00 | 80 | 1014.0 |
| 20260906095500 | 73 | 79 | 0.0 | 4.0 | 0.00 | 0.00 | 0.00 | 81 | 1013.9 |
| 20260906095000 | 73 | 109 | 1.0 | 4.0 | 0.00 | 0.00 | 0.00 | 81 | 1013.9 |
| 20260906094501 | 73 | 109 | 1.0 | 4.0 | 0.00 | 0.00 | 0.00 | 82 | 1013.8 |
| 20260906094001 | 73 | 125 | 1.0 | 5.0 | 0.00 | 0.00 | 0.00 | 82 | 1013.7 |
| 20260906093000 | 73 | 80 | 2.0 | 6.0 | 0.00 | 0.00 | 0.00 | 82 | 1013.6 |
| 20260906092500 | 73 | 99 | 3.0 | 4.0 | 0.00 | 0.00 | 0.00 | 82 | 1013.6 |
| 20260906092001 | 73 | 81 | 2.0 | 3.0 | 0.00 | 0.00 | 0.00 | 83 | 1013.6 |
| 20260906091000 | 73 | 93 | 1.0 | 3.0 | 0.00 | 0.00 | 0.00 | 83 | 1013.5 |
| 20260906090500 | 73 | 93 | 1.0 | 3.0 | 0.00 | 0.00 | 0.00 | 83 | 1013.5 |
| 20260906090003 | 73 | 94 | 0.0 | 3.0 | 0.00 | 0.00 | 0.00 | 83 | 1013.5 |
| 20260906085500 | 73 | 92 | 1.0 | 3.0 | 0.00 | 0.00 | 0.00 | 84 | 1013.5 |
| 20260906085000 | 73 | 92 | 1.0 | 3.0 | 0.00 | 0.00 | 0.00 | 84 | 1013.6 |
| 20260906084500 | 73 | 77 | 2.0 | 3.0 | 0.00 | 0.00 | 0.00 | 83 | 1013.5 |
| 20260906083500 | 73 | 73 | 2.0 | 3.0 | 0.00 | 0.00 | 0.00 | 83 | 1013.6 |
| 20260906083000 | 73 | 72 | 1.0 | 2.0 | 0.00 | 0.00 | 0.00 | 83 | 1013.7 |
| 20260906082500 | 73 | 72 | 0.0 | 2.0 | 0.00 | 0.00 | 0.00 | 83 | 1013.7 |
| 20260906082001 | 73 | 72 | 1.0 | 3.0 | 0.00 | 0.00 | 0.00 | 82 | 1013.8 |
| 20260906081500 | 74 | 72 | 1.0 | 3.0 | 0.00 | 0.00 | 0.00 | 81 | 1013.8 |
| 20260906080501 | 74 | 71 | 1.0 | 4.0 | 0.00 | 0.00 | 0.00 | 82 | 1013.9 |
| 20260906080003 | 73 | 78 | 2.0 | 4.0 | 0.00 | 0.00 | 0.00 | 82 | 1014.0 |
| 20260906075500 | 73 | 83 | 1.0 | 4.0 | 0.00 | 0.00 | 0.00 | 83 | 1014.1 |
| 20260906074500 | 72 | 124 | 0.0 | 2.0 | 0.00 | 0.00 | 0.00 | 84 | 1014.1 |
| 20260906074001 | 71 | 124 | 0.0 | 2.0 | 0.00 | 0.00 | 0.00 | 85 | 1014.1 |
| 20260906073501 | 71 | 124 | 1.0 | 1.0 | 0.00 | 0.00 | 0.00 | 86 | 1014.1 |
| 20260906073000 | 71 | 124 | 0.0 | 1.0 | 0.00 | 0.00 | 0.00 | 86 | 1014.1 |
| 20260906072000 | 71 | 124 | 0.0 | 1.0 | 0.00 | 0.00 | 0.00 | 87 | 1014.1 |
| 20260906071001 | 70 | 124 | 0.0 | 1.0 | 0.00 | 0.00 | 0.00 | 87 | 1014.2 |
| 20260906070500 | 70 | 124 | 0.0 | 1.0 | 0.00 | 0.00 | 0.00 | 87 | 1014.1 |
| 20260906070003 | 70 | 124 | 0.0 | 1.0 | 0.00 | 0.00 | 0.00 | 86 | 1014.2 |
| 20260906065000 | 70 | 124 | 0.0 | 1.0 | 0.00 | 0.00 | 0.00 | 86 | 1014.2 |
| 20260906064501 | 70 | 124 | 0.0 | 0.0 | 0.00 | 0.00 | 0.00 | 86 | 1014.2 |
| 20260906064000 | 70 | 124 | 0.0 | 0.0 | 0.00 | 0.00 | 0.00 | 86 | 1014.1 |
| 20260906063500 | 70 | 124 | 0.0 | 1.0 | 0.00 | 0.00 | 0.00 | 85 | 1014.0 |
| 20260906063000 | 71 | 124 | 0.0 | 1.0 | 0.00 | 0.00 | 0.00 | 84 | 1014.0 |
| 20260906062501 | 71 | 124 | 0.0 | 0.0 | 0.00 | 0.00 | 0.00 | 84 | 1014.1 |
| 20260906062001 | 71 | 124 | 0.0 | 0.0 | 0.00 | 0.00 | 0.00 | 84 | 1013.8 |
| 20260906061501 | 72 | 124 | 0.0 | 0.0 | 0.00 | 0.00 | 0.00 | 83 | 1013.7 |
| 20260906061000 | 71 | 124 | 0.0 | 1.0 | 0.00 | 0.00 | 0.00 | 83 | 1013.7 |
| 20260906060500 | 72 | 124 | 0.0 | 1.0 | 0.00 | 0.00 | 0.00 | 83 | 1013.7 |
| 20260906055003 | 72 | 124 | 0.0 | 2.0 | 0.00 | 0.00 | 0.00 | 82 | 1014.0 |
| 20260906054501 | 71 | 124 | 0.0 | 2.0 | 0.00 | 0.00 | 0.00 | 84 | 1014.1 |
| 20260906053501 | 71 | 124 | 1.0 | 1.0 | 0.00 | 0.00 | 0.00 | 85 | 1014.1 |
| 20260906053001 | 71 | 124 | 1.0 | 2.0 | 0.00 | 0.00 | 0.00 | 85 | 1014.0 |
| 20260906052001 | 71 | 124 | 1.0 | 3.0 | 0.00 | 0.00 | 0.00 | 86 | 1013.9 |
| 20260906051001 | 70 | 124 | 0.0 | 1.0 | 0.00 | 0.00 | 0.00 | 86 | 1013.8 |
| 20260906050502 | 70 | 124 | 0.0 | 0.0 | 0.00 | 0.00 | 0.00 | 86 | 1013.9 |
| 20260906050005 | 71 | 124 | 0.0 | 0.0 | 0.00 | 0.00 | 0.00 | 84 | 1013.8 |
| 20260906045501 | 72 | 124 | 0.0 | 1.0 | 0.00 | 0.00 | 0.00 | 84 | 1013.8 |
| 20260906044503 | 72 | 124 | 0.0 | 0.0 | 0.00 | 0.00 | 0.00 | 83 | 1013.9 |
| 20260906044001 | 72 | 124 | 0.0 | 0.0 | 0.00 | 0.00 | 0.00 | 83 | 1013.7 |
| 20260906043501 | 73 | 124 | 0.0 | 0.0 | 0.00 | 0.00 | 0.00 | 82 | 1013.7 |
| 20260906043002 | 73 | 124 | 0.0 | 1.0 | 0.00 | 0.00 | 0.00 | 82 | 1013.8 |
| 20260906042502 | 72 | 124 | 0.0 | 1.0 | 0.00 | 0.00 | 0.00 | 82 | 1013.7 |
| 20260906041502 | 73 | 124 | 0.0 | 3.0 | 0.00 | 0.00 | 0.00 | 81 | 1013.7 |
| 20260906041001 | 73 | 142 | 2.0 | 3.0 | 0.00 | 0.00 | 0.00 | 82 | 1013.8 |
| 20260906040501 | 72 | 143 | 0.0 | 2.0 | 0.00 | 0.00 | 0.00 | 82 | 1013.7 |
| 20260906040004 | 72 | 143 | 1.0 | 2.0 | 0.00 | 0.00 | 0.00 | 83 | 1013.6 |
| 20260906035501 | 73 | 143 | 0.0 | 2.0 | 0.00 | 0.00 | 0.00 | 81 | 1013.6 |
| 20260906035001 | 74 | 143 | 0.0 | 1.0 | 0.00 | 0.00 | 0.00 | 79 | 1013.8 |
| 20260906034501 | 74 | 143 | 1.0 | 1.0 | 0.00 | 0.00 | 0.00 | 78 | 1013.8 |
| 20260906034001 | 75 | 143 | 0.0 | 1.0 | 0.00 | 0.00 | 0.00 | 77 | 1013.7 |
| 20260906033002 | 75 | 143 | 1.0 | 2.0 | 0.00 | 0.00 | 0.00 | 78 | 1013.7 |
| 20260906032501 | 75 | 65 | 0.0 | 1.0 | 0.00 | 0.00 | 0.00 | 78 | 1013.6 |
| 20260906032001 | 75 | 65 | 1.0 | 1.0 | 0.00 | 0.00 | 0.00 | 77 | 1013.6 |
| 20260906031501 | 76 | 65 | 0.0 | 2.0 | 0.00 | 0.00 | 0.00 | 77 | 1013.6 |
| 20260906031001 | 77 | 65 | 0.0 | 4.0 | 0.00 | 0.00 | 0.00 | 75 | 1013.5 |
| 20260906030501 | 76 | 79 | 1.0 | 4.0 | 0.00 | 0.00 | 0.00 | 77 | 1013.5 |
| 20260906030004 | 75 | 78 | 1.0 | 4.0 | 0.00 | 0.00 | 0.00 | 79 | 1013.5 |
| 20260906025501 | 76 | 81 | 1.0 | 4.0 | 0.00 | 0.00 | 0.00 | 79 | 1013.4 |
| 20260906025001 | 75 | 73 | 1.0 | 4.0 | 0.00 | 0.00 | 0.00 | 82 | 1013.2 |
| 20260906024502 | 73 | 73 | 2.0 | 4.0 | 0.00 | 0.00 | 0.00 | 83 | 1013.1 |
| 20260906024001 | 74 | 143 | 1.0 | 3.0 | 0.00 | 0.00 | 0.00 | 82 | 1013.1 |
| 20260906023501 | 74 | 143 | 0.0 | 3.0 | 0.00 | 0.00 | 0.00 | 82 | 1013.1 |
| 20260906023002 | 74 | 144 | 0.0 | 1.0 | 0.00 | 0.00 | 0.00 | 81 | 1013.1 |
| 20260906022501 | 75 | 144 | 0.0 | 2.0 | 0.00 | 0.00 | 0.00 | 81 | 1013.0 |
| 20260906021501 | 76 | 144 | 0.0 | 2.0 | 0.00 | 0.00 | 0.00 | 80 | 1012.8 |
| 20260906021001 | 75 | 144 | 0.0 | 2.0 | 0.00 | 0.00 | 0.00 | 79 | 1012.7 |
| 20260906020501 | 76 | 144 | 2.0 | 2.0 | 0.00 | 0.00 | 0.00 | 78 | 1012.7 |
| 20260906020004 | 77 | 143 | 0.0 | 1.0 | 0.00 | 0.00 | 0.00 | 76 | 1012.6 |
| 20260906015501 | 78 | 143 | 0.0 | 1.0 | 0.00 | 0.00 | 0.00 | 74 | 1012.7 |
| 20260906015001 | 79 | 143 | 0.0 | 1.0 | 0.00 | 0.00 | 0.00 | 71 | 1012.5 |
| 20260906014001 | 80 | 143 | 0.0 | 1.0 | 0.00 | 0.00 | 0.00 | 71 | 1012.3 |
| 20260906013501 | 80 | 143 | 0.0 | 2.0 | 0.00 | 0.00 | 0.00 | 69 | 1012.3 |
| 20260906013001 | 82 | 143 | 0.0 | 2.0 | 0.00 | 0.00 | 0.00 | 67 | 1012.3 |
| 20260906012501 | 83 | 143 | 0.0 | 4.0 | 0.00 | 0.00 | 0.00 | 64 | 1012.1 |
| 20260906012001 | 84 | 143 | 1.0 | 6.0 | 0.00 | 0.00 | 0.00 | 63 | 1012.1 |
| 20260906011501 | 84 | 139 | 2.0 | 7.0 | 0.00 | 0.00 | 0.00 | 62 | 1012.1 |
| 20260906011001 | 84 | 132 | 3.0 | 7.0 | 0.00 | 0.00 | 0.00 | 63 | 1012.0 |
| 20260906010502 | 83 | 138 | 4.0 | 8.0 | 0.00 | 0.00 | 0.00 | 65 | 1011.9 |
| 20260906010004 | 83 | 142 | 4.0 | 8.0 | 0.00 | 0.00 | 0.00 | 66 | 1012.0 |
| 20260906005501 | 83 | 153 | 5.0 | 7.0 | 0.00 | 0.00 | 0.00 | 66 | 1011.9 |
| 20260906004501 | 84 | 170 | 6.0 | 8.0 | 0.00 | 0.00 | 0.00 | 64 | 1011.9 |
| 20260906004001 | 84 | 184 | 6.0 | 8.0 | 0.00 | 0.00 | 0.00 | 64 | 1012.0 |
| 20260906003501 | 84 | 182 | 5.0 | 7.0 | 0.00 | 0.00 | 0.00 | 63 | 1012.0 |
| 20260906003001 | 85 | 173 | 6.0 | 8.0 | 0.00 | 0.00 | 0.00 | 62 | 1012.2 |
| 20260906002501 | 85 | 163 | 5.0 | 11.0 | 0.00 | 0.00 | 0.00 | 61 | 1012.1 |
| 20260906002001 | 85 | 169 | 10.0 | 14.0 | 0.00 | 0.00 | 0.00 | 60 | 1012.2 |
| 20260906001501 | 85 | 156 | 8.0 | 14.0 | 0.00 | 0.00 | 0.00 | 60 | 1012.3 |
| 20260906001002 | 85 | 168 | 6.0 | 15.0 | 0.00 | 0.00 | 0.00 | 60 | 1012.3 |
| 20260906000501 | 86 | 164 | 10.0 | 18.0 | 0.00 | 0.00 | 0.00 | 57 | 1012.3 |
| 20260906000004 | 87 | 152 | 11.0 | 23.0 | 0.00 | 0.00 | 0.00 | 56 | 1012.4 |
| 20260905235501 | 88 | 153 | 13.0 | 32.0 | 0.00 | 0.00 | 0.00 | 54 | 1012.5 |
| 20260905235001 | 90 | 174 | 20.0 | 33.0 | 0.00 | 0.00 | 0.00 | 50 | 1012.4 |
| 20260905234501 | 92 | 171 | 31.0 | 31.0 | 0.00 | 0.00 | 0.00 | 47 | 1012.3 |
| 20260905234001 | 92 | 144 | 15.0 | 22.0 | 0.00 | 0.00 | 0.00 | 47 | 1012.1 |
| 20260905233001 | 94 | 152 | 11.0 | 25.0 | 0.00 | 0.00 | 0.00 | 45 | 1011.8 |
| 20260905232503 | 95 | 169 | 17.0 | 25.0 | 0.00 | 0.00 | 0.00 | 44 | 1011.7 |
| 20260905232001 | 96 | 130 | 17.0 | 17.0 | 0.00 | 0.00 | 0.00 | 45 | 1011.5 |
| 20260905231501 | 95 | 161 | 9.0 | 16.0 | 0.00 | 0.00 | 0.00 | 44 | 1011.5 |
| 20260905231001 | 95 | 134 | 10.0 | 14.0 | 0.00 | 0.00 | 0.00 | 44 | 1011.7 |
| 20260905230501 | 95 | 153 | 7.0 | 19.0 | 0.00 | 0.00 | 0.00 | 45 | 1011.6 |
| 20260905230004 | 96 | 126 | 11.0 | 14.0 | 0.00 | 0.00 | 0.00 | 44 | 1011.6 |
| 20260905225501 | 94 | 150 | 8.0 | 14.0 | 0.00 | 0.00 | 0.00 | 45 | 1011.5 |
| 20260905225002 | 95 | 151 | 6.0 | 16.0 | 0.00 | 0.00 | 0.00 | 43 | 1011.5 |
| 20260905224501 | 96 | 142 | 6.0 | 17.0 | 0.00 | 0.00 | 0.00 | 41 | 1011.5 |
| 20260905224001 | 96 | 127 | 7.0 | 15.0 | 0.00 | 0.00 | 0.00 | 42 | 1011.5 |
| 20260905223501 | 97 | 134 | 3.0 | 15.0 | 0.00 | 0.00 | 0.00 | 41 | 1011.5 |
| 20260905223001 | 97 | 141 | 7.0 | 13.0 | 0.00 | 0.00 | 0.00 | 41 | 1011.6 |
| 20260905222001 | 98 | 153 | 12.0 | 15.0 | 0.00 | 0.00 | 0.00 | 42 | 1011.5 |
| 20260905221501 | 98 | 157 | 7.0 | 14.0 | 0.00 | 0.00 | 0.00 | 41 | 1011.5 |
| 20260905221001 | 98 | 121 | 11.0 | 14.0 | 0.00 | 0.00 | 0.00 | 40 | 1011.4 |
| 20260905220501 | 98 | 69 | 6.0 | 13.0 | 0.00 | 0.00 | 0.00 | 41 | 1011.4 |
| 20260905220004 | 98 | 94 | 12.0 | 14.0 | 0.00 | 0.00 | 0.00 | 41 | 1011.4 |
| 20260905215501 | 98 | 119 | 10.0 | 18.0 | 0.00 | 0.00 | 0.00 | 43 | 1011.5 |
| 20260905214501 | 99 | 55 | 3.0 | 19.0 | 0.00 | 0.00 | 0.00 | 42 | 1011.8 |
| 20260905214001 | 99 | 127 | 7.0 | 19.0 | 0.00 | 0.00 | 0.00 | 40 | 1011.9 |
| 20260905213501 | 100 | 140 | 7.0 | 19.0 | 0.00 | 0.00 | 0.00 | 44 | 1012.0 |
| 20260905212501 | 99 | 162 | 10.0 | 17.0 | 0.00 | 0.00 | 0.00 | 41 | 1012.0 |
| 20260905212001 | 99 | 134 | 5.0 | 13.0 | 0.00 | 0.00 | 0.00 | 40 | 1012.0 |
| 20260905211001 | 100 | 126 | 10.0 | 17.0 | 0.00 | 0.00 | 0.00 | 39 | 1012.0 |
| 20260905210502 | 99 | 89 | 8.0 | 19.0 | 0.00 | 0.00 | 0.00 | 39 | 1012.1 |
| 20260905210004 | 99 | 121 | 9.0 | 16.0 | 0.00 | 0.00 | 0.00 | 39 | 1012.1 |
| 20260905205501 | 99 | 145 | 11.0 | 17.0 | 0.00 | 0.00 | 0.00 | 41 | 1012.2 |
| 20260905205001 | 99 | 133 | 11.0 | 16.0 | 0.00 | 0.00 | 0.00 | 40 | 1012.2 |
| 20260905204501 | 99 | 131 | 9.0 | 15.0 | 0.00 | 0.00 | 0.00 | 43 | 1012.2 |
| 20260905204002 | 99 | 119 | 10.0 | 15.0 | 0.00 | 0.00 | 0.00 | 40 | 1012.2 |
| 20260905203501 | 98 | 104 | 4.0 | 14.0 | 0.00 | 0.00 | 0.00 | 40 | 1012.3 |
| 20260905203001 | 99 | 142 | 10.0 | 15.0 | 0.00 | 0.00 | 0.00 | 41 | 1012.4 |
| 20260905202501 | 99 | 78 | 11.0 | 17.0 | 0.00 | 0.00 | 0.00 | 40 | 1012.3 |
| 20260905202001 | 98 | 114 | 13.0 | 21.0 | 0.00 | 0.00 | 0.00 | 42 | 1012.5 |
| 20260905201501 | 98 | 150 | 5.0 | 21.0 | 0.00 | 0.00 | 0.00 | 41 | 1012.7 |
| 20260905201001 | 99 | 113 | 7.0 | 14.0 | 0.00 | 0.00 | 0.00 | 40 | 1012.9 |
| 20260905200501 | 98 | 109 | 7.0 | 20.0 | 0.00 | 0.00 | 0.00 | 42 | 1012.9 |